status,avgMeasuredTime,avgSpeed,extID,medianMeasuredTime,TIMESTAMP,vehicleCount,_id,REPORT_ID
OK,105,25,688,105,2014-08-01T07:50:00,6,20746240,190259
OK,112,23,688,112,2014-08-01T07:55:00,6,20746412,190259
OK,78,34,688,78,2014-08-01T08:00:00,9,20746743,190259
OK,91,29,688,91,2014-08-01T08:05:00,13,20747192,190259
OK,99,27,688,99,2014-08-01T08:10:00,3,20747565,190259
OK,88,30,688,88,2014-08-01T08:15:00,4,20748014,190259
OK,97,27,688,97,2014-08-01T08:20:00,7,20748463,190259
OK,99,27,688,99,2014-08-01T08:25:00,6,20748912,190259
OK,73,36,688,73,2014-08-01T08:30:00,2,20749361,190259
OK,72,37,688,72,2014-08-01T08:35:00,3,20749810,190259
OK,72,37,688,72,2014-08-01T08:40:00,3,20750259,190259
OK,69,38,688,69,2014-08-01T08:45:00,4,20750708,190259
OK,65,41,688,65,2014-08-01T08:50:00,7,20751157,190259
OK,67,40,688,67,2014-08-01T08:55:00,2,20751606,190259
OK,86,31,688,86,2014-08-01T09:00:00,3,20752055,190259
OK,147,18,688,147,2014-08-01T09:05:00,5,20752504,190259
OK,182,14,688,182,2014-08-01T09:10:00,7,20752953,190259
OK,186,14,688,186,2014-08-01T09:15:00,3,20753402,190259
OK,99,27,688,99,2014-08-01T09:20:00,4,20753851,190259
OK,107,25,688,107,2014-08-01T09:25:00,3,20754300,190259
OK,107,25,688,107,2014-08-01T09:30:00,3,20754749,190259
OK,95,28,688,95,2014-08-01T09:35:00,3,20755198,190259
OK,117,22,688,117,2014-08-01T09:40:00,3,20755647,190259
OK,80,33,688,80,2014-08-01T09:45:00,4,20756096,190259
OK,117,22,688,117,2014-08-01T09:50:00,9,20756545,190259
OK,123,21,688,123,2014-08-01T09:55:00,10,20756994,190259
OK,102,26,688,102,2014-08-01T10:00:00,5,20757443,190259
OK,100,26,688,100,2014-08-01T10:05:00,2,20757892,190259
OK,105,25,688,105,2014-08-01T10:10:00,4,20758341,190259
OK,97,27,688,97,2014-08-01T10:15:00,1,20758790,190259
OK,146,18,688,146,2014-08-01T10:20:00,2,20759239,190259
OK,175,15,688,175,2014-08-01T10:25:00,4,20759688,190259
OK,189,14,688,189,2014-08-01T10:30:00,3,20760137,190259
OK,155,17,688,155,2014-08-01T10:35:00,0,20760586,190259
OK,120,22,688,120,2014-08-01T10:40:00,2,20761035,190259
OK,97,27,688,97,2014-08-01T10:45:00,3,20761484,190259
OK,90,29,688,90,2014-08-01T10:50:00,4,20761933,190259
OK,53,50,688,53,2014-08-01T10:55:00,1,20762382,190259
OK,80,33,688,80,2014-08-01T11:00:00,2,20762831,190259
OK,113,23,688,113,2014-08-01T11:05:00,4,20763280,190259
OK,169,15,688,169,2014-08-01T11:10:00,6,20763729,190259
OK,174,15,688,174,2014-08-01T11:15:00,3,20764178,190259
OK,99,27,688,99,2014-08-01T11:20:00,2,20764626,190259
OK,110,24,688,110,2014-08-01T11:25:00,4,20765075,190259
OK,110,24,688,110,2014-08-01T11:30:00,2,20765524,190259
OK,109,24,688,109,2014-08-01T11:35:00,0,20765973,190259
OK,155,17,688,155,2014-08-01T11:40:00,2,20766422,190259
OK,162,16,688,162,2014-08-01T11:45:00,6,20766871,190259
OK,106,25,688,106,2014-08-01T11:50:00,4,20767320,190259
OK,87,30,688,87,2014-08-01T11:55:00,4,20767769,190259
OK,100,26,688,100,2014-08-01T12:00:00,2,20768218,190259
OK,96,27,688,96,2014-08-01T12:05:00,2,20768667,190259
OK,95,28,688,95,2014-08-01T12:10:00,0,20769116,190259
OK,239,11,688,239,2014-08-01T12:15:00,4,20769565,190259
OK,173,15,688,173,2014-08-01T12:20:00,4,20770014,190259
OK,160,16,688,160,2014-08-01T12:25:00,4,20770463,190259
OK,108,24,688,108,2014-08-01T12:30:00,3,20770912,190259
OK,103,26,688,103,2014-08-01T12:35:00,3,20771361,190259
OK,141,19,688,141,2014-08-01T12:40:00,4,20771810,190259
OK,141,19,688,141,2014-08-01T12:45:00,4,20772259,190259
OK,70,38,688,70,2014-08-01T12:50:00,3,20772708,190259
OK,63,42,688,63,2014-08-01T12:55:00,1,20773157,190259
OK,204,13,688,204,2014-08-01T13:00:00,2,20773606,190259
OK,174,15,688,174,2014-08-01T13:05:00,5,20774055,190259
OK,123,21,688,123,2014-08-01T13:10:00,4,20774504,190259
OK,123,21,688,123,2014-08-01T13:15:00,2,20774953,190259
OK,121,22,688,121,2014-08-01T13:20:00,0,20775402,190259
OK,121,22,688,121,2014-08-01T13:25:00,0,20775851,190259
OK,113,23,688,113,2014-08-01T13:30:00,3,20776300,190259
OK,122,22,688,122,2014-08-01T13:35:00,2,20776749,190259
OK,81,33,688,81,2014-08-01T13:40:00,0,20777198,190259
OK,68,39,688,68,2014-08-01T13:45:00,1,20777647,190259
OK,141,19,688,141,2014-08-01T13:50:00,5,20778096,190259
OK,166,16,688,166,2014-08-01T13:55:00,5,20778545,190259
OK,193,13,688,193,2014-08-01T14:00:00,4,20778994,190259
OK,99,27,688,99,2014-08-01T14:05:00,3,20779443,190259
OK,139,19,688,139,2014-08-01T14:10:00,4,20779892,190259
OK,231,11,688,231,2014-08-01T14:15:00,1,20780341,190259
OK,243,11,688,243,2014-08-01T14:20:00,2,20780790,190259
OK,221,12,688,221,2014-08-01T14:25:00,2,20781239,190259
OK,221,12,688,221,2014-08-01T14:30:00,0,20781688,190259
OK,98,27,688,98,2014-08-01T14:35:00,3,20782137,190259
OK,63,42,688,63,2014-08-01T14:40:00,1,20782586,190259
OK,63,42,688,63,2014-08-01T14:45:00,0,20783035,190259
OK,63,42,688,63,2014-08-01T14:50:00,0,20783484,190259
OK,63,42,688,63,2014-08-01T14:55:00,0,20783933,190259
OK,63,42,688,63,2014-08-01T15:00:00,0,20784382,190259
OK,106,25,688,106,2014-08-01T15:05:00,3,20784831,190259
OK,105,25,688,105,2014-08-01T15:10:00,4,20785280,190259
OK,131,20,688,131,2014-08-01T15:15:00,4,20785729,190259
OK,115,23,688,115,2014-08-01T15:20:00,6,20786178,190259
OK,105,25,688,105,2014-08-01T15:25:00,5,20786627,190259
OK,80,33,688,80,2014-08-01T15:30:00,2,20787076,190259
OK,64,41,688,64,2014-08-01T15:35:00,5,20787525,190259
OK,67,40,688,67,2014-08-01T15:40:00,4,20787974,190259
OK,64,41,688,64,2014-08-01T15:45:00,0,20788423,190259
OK,64,41,688,64,2014-08-01T15:50:00,0,20788872,190259
OK,63,42,688,63,2014-08-01T15:55:00,5,20789321,190259
OK,63,42,688,63,2014-08-01T16:00:00,3,20789770,190259
OK,65,41,688,65,2014-08-01T16:05:00,2,20790219,190259
OK,65,41,688,65,2014-08-01T16:10:00,2,20790668,190259
OK,65,41,688,65,2014-08-01T16:15:00,0,20791117,190259
OK,65,41,688,65,2014-08-01T16:20:00,0,20791566,190259
OK,65,41,688,65,2014-08-01T16:25:00,0,20792015,190259
OK,64,41,688,64,2014-08-01T16:30:00,2,20792464,190259
OK,67,40,688,67,2014-08-01T16:35:00,2,20792913,190259
OK,57,47,688,57,2014-08-01T16:40:00,1,20793362,190259
OK,57,47,688,57,2014-08-01T16:45:00,0,20793811,190259
OK,57,47,688,57,2014-08-01T16:50:00,0,20794260,190259
OK,57,47,688,57,2014-08-01T16:55:00,0,20794709,190259
OK,57,47,688,57,2014-08-01T17:00:00,0,20795158,190259
OK,57,47,688,57,2014-08-01T17:05:00,0,20795607,190259
OK,61,44,688,61,2014-08-01T17:10:00,2,20796056,190259
OK,61,44,688,61,2014-08-01T17:15:00,0,20796505,190259
OK,108,24,688,108,2014-08-01T17:20:00,1,20796954,190259
OK,81,33,688,81,2014-08-01T17:25:00,3,20797403,190259
OK,71,37,688,71,2014-08-01T17:30:00,2,20797852,190259
OK,81,33,688,81,2014-08-01T17:35:00,0,20798301,190259
OK,57,47,688,57,2014-08-01T17:40:00,1,20798750,190259
OK,57,47,688,57,2014-08-01T17:45:00,1,20799199,190259
OK,57,47,688,57,2014-08-01T17:50:00,0,20799648,190259
OK,57,47,688,57,2014-08-01T17:55:00,0,20800097,190259
OK,57,47,688,57,2014-08-01T18:00:00,0,20800546,190259
OK,57,47,688,57,2014-08-01T18:05:00,0,20800995,190259
OK,57,47,688,57,2014-08-01T18:10:00,0,20801444,190259
OK,67,40,688,67,2014-08-01T18:15:00,2,20801893,190259
OK,84,31,688,84,2014-08-01T18:20:00,2,20802342,190259
OK,99,27,688,99,2014-08-01T18:25:00,1,20802791,190259
OK,99,27,688,99,2014-08-01T18:30:00,0,20803240,190259
OK,91,29,688,91,2014-08-01T18:35:00,1,20803689,190259
OK,91,29,688,91,2014-08-01T18:40:00,0,20804138,190259
OK,78,34,688,78,2014-08-01T18:45:00,1,20804587,190259
OK,78,34,688,78,2014-08-01T18:50:00,1,20805036,190259
OK,78,34,688,78,2014-08-01T18:55:00,0,20805485,190259
OK,78,34,688,78,2014-08-01T19:00:00,0,20805934,190259
OK,78,34,688,78,2014-08-01T19:05:00,0,20806383,190259
OK,78,34,688,78,2014-08-01T19:10:00,0,20806832,190259
OK,78,34,688,78,2014-08-01T19:15:00,0,20807281,190259
OK,95,28,688,95,2014-08-01T19:20:00,1,20807730,190259
OK,55,48,688,55,2014-08-01T19:25:00,3,20808179,190259
OK,52,51,688,52,2014-08-01T19:30:00,3,20808628,190259
OK,56,47,688,56,2014-08-01T19:35:00,2,20809077,190259
OK,74,36,688,74,2014-08-01T19:40:00,2,20809526,190259
OK,93,28,688,93,2014-08-01T19:45:00,1,20809975,190259
OK,93,28,688,93,2014-08-01T19:50:00,1,20810424,190259
OK,93,28,688,93,2014-08-01T19:55:00,0,20810873,190259
OK,77,34,688,77,2014-08-01T20:00:00,1,20811319,190259
OK,67,40,688,67,2014-08-01T20:05:00,2,20811492,190259
OK,58,46,688,58,2014-08-01T20:10:00,1,20811695,190259
OK,54,49,688,54,2014-08-01T20:15:00,1,20811901,190259
OK,54,49,688,54,2014-08-01T20:20:00,0,20812110,190259
OK,54,49,688,54,2014-08-01T20:25:00,0,20812329,190259
OK,71,37,688,71,2014-08-01T20:30:00,1,20812543,190259
OK,71,37,688,71,2014-08-01T20:35:00,1,20812751,190259
OK,71,37,688,71,2014-08-01T20:40:00,0,20812954,190259
OK,71,37,688,71,2014-08-01T20:45:00,0,20813161,190259
OK,71,37,688,71,2014-08-01T20:50:00,0,20813372,190259
OK,55,48,688,55,2014-08-01T20:55:00,1,20813602,190259
OK,55,48,688,55,2014-08-01T21:00:00,1,20813840,190259
OK,55,48,688,55,2014-08-01T21:05:00,0,20814017,190259
OK,55,48,688,55,2014-08-01T21:10:00,0,20814256,190259
OK,55,48,688,55,2014-08-01T21:15:00,0,20814452,190259
OK,55,48,688,55,2014-08-01T21:20:00,0,20814659,190259
OK,55,48,688,55,2014-08-01T21:25:00,0,20814888,190259
OK,55,48,688,55,2014-08-01T21:30:00,0,20815164,190259
OK,55,48,688,55,2014-08-01T21:35:00,0,20815397,190259
OK,53,50,688,53,2014-08-01T21:40:00,1,20815621,190259
OK,53,50,688,53,2014-08-01T21:45:00,0,20815858,190259
OK,53,50,688,53,2014-08-01T21:50:00,0,20816099,190259
OK,53,50,688,53,2014-08-01T21:55:00,0,20816334,190259
OK,53,50,688,53,2014-08-01T22:00:00,0,20816602,190259
OK,53,50,688,53,2014-08-01T22:05:00,0,20817051,190259
OK,53,50,688,53,2014-08-01T22:10:00,0,20817373,190259
OK,53,50,688,53,2014-08-01T22:15:00,0,20817802,190259
OK,71,37,688,71,2014-08-01T22:20:00,1,20818092,190259
OK,71,37,688,71,2014-08-01T22:25:00,0,20818408,190259
OK,71,37,688,71,2014-08-01T22:30:00,0,20818742,190259
OK,71,37,688,71,2014-08-01T22:35:00,0,20819044,190259
OK,71,37,688,71,2014-08-01T22:40:00,0,20819226,190259
OK,57,47,688,57,2014-08-01T22:45:00,1,20819514,190259
OK,57,47,688,57,2014-08-01T22:50:00,1,20819749,190259
OK,57,47,688,57,2014-08-01T22:55:00,0,20820002,190259
OK,57,47,688,57,2014-08-01T23:00:00,0,20820178,190259
OK,57,47,688,57,2014-08-01T23:05:00,0,20820431,190259
OK,57,47,688,57,2014-08-01T23:10:00,0,20820661,190259
OK,96,27,688,96,2014-08-01T23:15:00,1,20820849,190259
OK,96,27,688,96,2014-08-01T23:20:00,1,20821099,190259
OK,71,37,688,71,2014-08-01T23:25:00,1,20821277,190259
OK,71,37,688,71,2014-08-01T23:30:00,1,20821503,190259
OK,46,58,688,46,2014-08-01T23:35:00,1,20821748,190259
OK,46,58,688,46,2014-08-01T23:40:00,1,20821927,190259
OK,46,58,688,46,2014-08-01T23:45:00,0,20822150,190259
OK,51,52,688,51,2014-08-01T23:50:00,1,20822417,190259
OK,51,52,688,51,2014-08-01T23:55:00,0,20822743,190259
OK,51,52,688,51,2014-08-02T00:00:00,0,20823041,190259
OK,51,52,688,51,2014-08-02T00:05:00,0,20823490,190259
OK,51,52,688,51,2014-08-02T00:10:00,0,20823939,190259
OK,56,47,688,56,2014-08-02T00:15:00,1,20824388,190259
OK,56,47,688,56,2014-08-02T00:20:00,0,20824837,190259
OK,56,47,688,56,2014-08-02T00:25:00,0,20825286,190259
OK,56,47,688,56,2014-08-02T00:30:00,0,20825735,190259
OK,85,31,688,85,2014-08-02T00:35:00,1,20826184,190259
OK,85,31,688,85,2014-08-02T00:40:00,1,20826633,190259
OK,85,31,688,85,2014-08-02T00:45:00,0,20827082,190259
OK,85,31,688,85,2014-08-02T00:50:00,0,20827531,190259
OK,85,31,688,85,2014-08-02T00:55:00,0,20827980,190259
OK,85,31,688,85,2014-08-02T01:00:00,0,20828429,190259
OK,85,31,688,85,2014-08-02T01:05:00,0,20828878,190259
OK,85,31,688,85,2014-08-02T01:10:00,0,20829327,190259
OK,85,31,688,85,2014-08-02T01:15:00,0,20829776,190259
OK,85,31,688,85,2014-08-02T01:20:00,0,20830225,190259
OK,85,31,688,85,2014-08-02T01:25:00,0,20830674,190259
OK,85,31,688,85,2014-08-02T01:30:00,0,20831123,190259
OK,81,33,688,81,2014-08-02T01:35:00,1,20831572,190259
OK,78,34,688,78,2014-08-02T01:40:00,1,20832021,190259
OK,78,34,688,78,2014-08-02T01:45:00,0,20832470,190259
OK,78,34,688,78,2014-08-02T01:50:00,0,20832919,190259
OK,78,34,688,78,2014-08-02T01:55:00,0,20833368,190259
OK,78,34,688,78,2014-08-02T02:00:00,0,20833817,190259
OK,78,34,688,78,2014-08-02T02:05:00,0,20834266,190259
OK,78,34,688,78,2014-08-02T02:10:00,0,20834715,190259
OK,78,34,688,78,2014-08-02T02:15:00,0,20835164,190259
OK,78,34,688,78,2014-08-02T02:20:00,0,20835613,190259
OK,78,34,688,78,2014-08-02T02:25:00,0,20836062,190259
OK,162,16,688,162,2014-08-02T02:30:00,1,20836511,190259
OK,162,16,688,162,2014-08-02T02:35:00,1,20836960,190259
OK,162,16,688,162,2014-08-02T02:40:00,0,20837409,190259
OK,162,16,688,162,2014-08-02T02:45:00,0,20837858,190259
OK,162,16,688,162,2014-08-02T02:50:00,0,20838307,190259
OK,162,16,688,162,2014-08-02T02:55:00,0,20838756,190259
OK,162,16,688,162,2014-08-02T03:00:00,0,20839205,190259
OK,162,16,688,162,2014-08-02T03:05:00,0,20839654,190259
OK,162,16,688,162,2014-08-02T03:10:00,0,20840103,190259
OK,162,16,688,162,2014-08-02T03:15:00,0,20840552,190259
OK,162,16,688,162,2014-08-02T03:20:00,0,20841001,190259
OK,162,16,688,162,2014-08-02T03:25:00,0,20841450,190259
OK,162,16,688,162,2014-08-02T03:30:00,0,20841899,190259
OK,162,16,688,162,2014-08-02T03:35:00,0,20842348,190259
OK,162,16,688,162,2014-08-02T03:40:00,0,20842797,190259
OK,162,16,688,162,2014-08-02T03:45:00,0,20843246,190259
OK,162,16,688,162,2014-08-02T03:50:00,0,20843695,190259
OK,162,16,688,162,2014-08-02T03:55:00,0,20844144,190259
OK,162,16,688,162,2014-08-02T04:00:00,0,20844593,190259
OK,162,16,688,162,2014-08-02T04:05:00,0,20844724,190259
OK,162,16,688,162,2014-08-02T04:10:00,0,20845054,190259
OK,162,16,688,162,2014-08-02T04:15:00,0,20845234,190259
OK,162,16,688,162,2014-08-02T04:20:00,0,20845590,190259
OK,162,16,688,162,2014-08-02T04:25:00,0,20845958,190259
OK,162,16,688,162,2014-08-02T04:30:00,0,20846146,190259
OK,52,51,688,52,2014-08-02T04:35:00,1,20846513,190259
OK,52,51,688,52,2014-08-02T04:40:00,0,20846896,190259
OK,52,51,688,52,2014-08-02T04:45:00,0,20847155,190259
OK,52,51,688,52,2014-08-02T04:50:00,0,20847521,190259
OK,52,51,688,52,2014-08-02T04:55:00,0,20847878,190259
OK,52,51,688,52,2014-08-02T05:00:00,0,20848238,190259
OK,52,51,688,52,2014-08-02T05:05:00,0,20848402,190259
OK,111,24,688,111,2014-08-02T05:10:00,1,20848756,190259
OK,111,24,688,111,2014-08-02T05:15:00,0,20848948,190259
OK,111,24,688,111,2014-08-02T05:20:00,0,20849292,190259
OK,86,31,688,86,2014-08-02T05:30:00,1,20849817,190259
OK,86,31,688,86,2014-08-02T05:35:00,0,20850089,190259
OK,86,31,688,86,2014-08-02T05:40:00,0,20850382,190259
OK,86,31,688,86,2014-08-02T05:45:00,0,20850683,190259
OK,86,31,688,86,2014-08-02T05:50:00,0,20851041,190259
OK,86,31,688,86,2014-08-02T05:55:00,0,20851295,190259
OK,86,31,688,86,2014-08-02T06:00:00,0,20851598,190259
OK,86,31,688,86,2014-08-02T06:05:00,0,20852047,190259
OK,74,36,688,74,2014-08-02T06:10:00,1,20852496,190259
OK,74,36,688,74,2014-08-02T06:15:00,1,20852945,190259
OK,74,36,688,74,2014-08-02T06:20:00,0,20853394,190259
OK,58,46,688,58,2014-08-02T06:25:00,1,20853843,190259
OK,82,32,688,82,2014-08-02T06:30:00,2,20854292,190259
OK,106,25,688,106,2014-08-02T06:35:00,1,20854741,190259
OK,106,25,688,106,2014-08-02T06:40:00,0,20855190,190259
OK,106,25,688,106,2014-08-02T06:45:00,0,20855639,190259
OK,106,25,688,106,2014-08-02T06:50:00,0,20856088,190259
OK,72,37,688,72,2014-08-02T06:55:00,2,20856537,190259
OK,72,37,688,72,2014-08-02T07:00:00,2,20856986,190259
OK,38,70,688,38,2014-08-02T07:05:00,1,20857435,190259
OK,43,62,688,43,2014-08-02T07:10:00,2,20857884,190259
OK,74,36,688,74,2014-08-02T07:15:00,3,20858333,190259
OK,74,36,688,74,2014-08-02T07:20:00,3,20858782,190259
OK,63,42,688,63,2014-08-02T07:25:00,0,20859231,190259
OK,58,46,688,58,2014-08-02T07:30:00,1,20859680,190259
OK,41,65,688,41,2014-08-02T07:35:00,1,20860129,190259
OK,56,47,688,56,2014-08-02T07:40:00,2,20860578,190259
OK,67,40,688,67,2014-08-02T07:45:00,2,20861027,190259
OK,87,30,688,87,2014-08-02T07:50:00,2,20861476,190259
OK,92,29,688,92,2014-08-02T07:55:00,4,20861925,190259
OK,89,30,688,89,2014-08-02T08:00:00,0,20862374,190259
OK,65,41,688,65,2014-08-02T08:05:00,3,20862823,190259
OK,65,41,688,65,2014-08-02T08:10:00,3,20863272,190259
OK,58,46,688,58,2014-08-02T08:15:00,0,20863721,190259
OK,53,50,688,53,2014-08-02T08:20:00,1,20864170,190259
OK,67,40,688,67,2014-08-02T08:25:00,5,20864619,190259
OK,80,33,688,80,2014-08-02T08:30:00,4,20865068,190259
OK,92,29,688,92,2014-08-02T08:35:00,3,20865517,190259
OK,89,30,688,89,2014-08-02T08:40:00,3,20865966,190259
OK,66,40,688,66,2014-08-02T08:45:00,2,20866415,190259
OK,78,34,688,78,2014-08-02T08:50:00,7,20866864,190259
OK,78,34,688,78,2014-08-02T08:55:00,5,20867313,190259
OK,88,30,688,88,2014-08-02T09:00:00,3,20867762,190259
OK,84,31,688,84,2014-08-02T09:05:00,2,20868211,190259
OK,114,23,688,114,2014-08-02T09:10:00,3,20868660,190259
OK,98,27,688,98,2014-08-02T09:15:00,6,20869109,190259
OK,91,29,688,91,2014-08-02T09:20:00,4,20869558,190259
OK,82,32,688,82,2014-08-02T09:25:00,5,20870007,190259
OK,94,28,688,94,2014-08-02T09:30:00,6,20870456,190259
OK,83,32,688,83,2014-08-02T09:35:00,5,20870905,190259
OK,91,29,688,91,2014-08-02T09:40:00,6,20871354,190259
OK,93,28,688,93,2014-08-02T09:45:00,4,20871803,190259
OK,80,33,688,80,2014-08-02T09:50:00,1,20872252,190259
OK,80,33,688,80,2014-08-02T09:55:00,3,20872701,190259
OK,82,32,688,82,2014-08-02T10:00:00,3,20873150,190259
OK,101,26,688,101,2014-08-02T10:05:00,3,20873599,190259
OK,93,28,688,93,2014-08-02T10:10:00,2,20874048,190259
OK,78,34,688,78,2014-08-02T10:15:00,0,20874497,190259
OK,57,47,688,57,2014-08-02T10:20:00,1,20874946,190259
OK,61,44,688,61,2014-08-02T10:25:00,2,20875395,190259
OK,65,41,688,65,2014-08-02T10:30:00,0,20875844,190259
OK,78,34,688,78,2014-08-02T10:35:00,1,20876293,190259
OK,80,33,688,80,2014-08-02T10:40:00,2,20876742,190259
OK,48,55,688,48,2014-08-02T10:45:00,3,20877191,190259
OK,46,58,688,46,2014-08-02T10:50:00,2,20877640,190259
OK,116,23,688,116,2014-08-02T10:55:00,2,20878089,190259
OK,113,23,688,113,2014-08-02T11:00:00,5,20878538,190259
OK,103,26,688,103,2014-08-02T11:05:00,3,20878987,190259
OK,109,24,688,109,2014-08-02T11:10:00,1,20879436,190259
OK,97,27,688,97,2014-08-02T11:15:00,2,20879885,190259
OK,83,32,688,83,2014-08-02T11:20:00,3,20880334,190259
OK,83,32,688,83,2014-08-02T11:25:00,2,20880783,190259
OK,73,36,688,73,2014-08-02T11:30:00,2,20881232,190259
OK,63,42,688,63,2014-08-02T11:35:00,1,20881681,190259
OK,111,24,688,111,2014-08-02T11:40:00,1,20882130,190259
OK,106,25,688,106,2014-08-02T11:45:00,2,20882579,190259
OK,98,27,688,98,2014-08-02T11:50:00,4,20883028,190259
OK,82,32,688,82,2014-08-02T11:55:00,5,20883477,190259
OK,71,37,688,71,2014-08-02T12:00:00,2,20883926,190259
OK,83,32,688,83,2014-08-02T12:05:00,0,20884375,190259
OK,95,28,688,95,2014-08-02T12:10:00,5,20884824,190259
OK,95,28,688,95,2014-08-02T12:15:00,3,20885273,190259
OK,72,37,688,72,2014-08-02T12:20:00,1,20885722,190259
OK,82,32,688,82,2014-08-02T12:25:00,2,20886171,190259
OK,80,33,688,80,2014-08-02T12:30:00,1,20886620,190259
OK,68,39,688,68,2014-08-02T12:35:00,1,20887069,190259
OK,68,39,688,68,2014-08-02T12:40:00,0,20887518,190259
OK,82,32,688,82,2014-08-02T12:45:00,2,20887967,190259
OK,80,33,688,80,2014-08-02T12:50:00,3,20888416,190259
OK,58,46,688,58,2014-08-02T12:55:00,2,20888865,190259
OK,76,35,688,76,2014-08-02T13:00:00,3,20889314,190259
OK,86,31,688,86,2014-08-02T13:05:00,2,20889763,190259
OK,96,27,688,96,2014-08-02T13:10:00,0,20890212,190259
OK,90,29,688,90,2014-08-02T13:15:00,2,20890661,190259
OK,75,35,688,75,2014-08-02T13:20:00,4,20891110,190259
OK,66,40,688,66,2014-08-02T13:25:00,4,20891559,190259
OK,65,41,688,65,2014-08-02T13:30:00,2,20892008,190259
OK,73,36,688,73,2014-08-02T13:35:00,1,20892457,190259
OK,73,36,688,73,2014-08-02T13:40:00,0,20892906,190259
OK,84,31,688,84,2014-08-02T13:45:00,4,20893355,190259
OK,106,25,688,106,2014-08-02T13:50:00,3,20893804,190259
OK,61,44,688,61,2014-08-02T13:55:00,1,20894253,190259
OK,61,44,688,61,2014-08-02T14:00:00,1,20894702,190259
OK,74,36,688,74,2014-08-02T14:05:00,3,20895151,190259
OK,75,35,688,75,2014-08-02T14:10:00,2,20895600,190259
OK,69,38,688,69,2014-08-02T14:15:00,2,20896049,190259
OK,54,49,688,54,2014-08-02T14:20:00,2,20896498,190259
OK,59,45,688,59,2014-08-02T14:25:00,2,20896947,190259
OK,74,36,688,74,2014-08-02T14:30:00,0,20897396,190259
OK,159,16,688,159,2014-08-02T14:35:00,1,20897845,190259
OK,76,35,688,76,2014-08-02T14:40:00,1,20898294,190259
OK,92,29,688,92,2014-08-02T14:45:00,2,20898743,190259
OK,92,29,688,92,2014-08-02T14:50:00,2,20899192,190259
OK,114,23,688,114,2014-08-02T14:55:00,0,20899641,190259
OK,114,23,688,114,2014-08-02T15:00:00,0,20900090,190259
OK,68,39,688,68,2014-08-02T15:05:00,1,20900539,190259
OK,68,39,688,68,2014-08-02T15:10:00,1,20900988,190259
OK,68,39,688,68,2014-08-02T15:15:00,0,20901437,190259
OK,68,39,688,68,2014-08-02T15:20:00,0,20901886,190259
OK,68,39,688,68,2014-08-02T15:25:00,0,20902335,190259
OK,92,29,688,92,2014-08-02T15:30:00,4,20902784,190259
OK,92,29,688,92,2014-08-02T15:35:00,4,20903233,190259
OK,126,21,688,126,2014-08-02T15:40:00,0,20903682,190259
OK,49,54,688,49,2014-08-02T15:45:00,1,20904131,190259
OK,49,54,688,49,2014-08-02T15:50:00,1,20904580,190259
OK,49,54,688,49,2014-08-02T15:55:00,0,20905029,190259
OK,49,54,688,49,2014-08-02T16:00:00,0,20905478,190259
OK,49,54,688,49,2014-08-02T16:05:00,0,20905927,190259
OK,49,54,688,49,2014-08-02T16:10:00,0,20906376,190259
OK,49,54,688,49,2014-08-02T16:15:00,0,20906825,190259
OK,71,37,688,71,2014-08-02T16:20:00,3,20907274,190259
OK,132,20,688,132,2014-08-02T16:25:00,2,20907723,190259
OK,193,13,688,193,2014-08-02T16:30:00,0,20908172,190259
OK,193,13,688,193,2014-08-02T16:35:00,0,20908621,190259
OK,193,13,688,193,2014-08-02T16:40:00,0,20909070,190259
OK,83,32,688,83,2014-08-02T16:45:00,1,20909519,190259
OK,83,32,688,83,2014-08-02T16:50:00,1,20909968,190259
OK,75,35,688,75,2014-08-02T16:55:00,2,20910417,190259
OK,104,25,688,104,2014-08-02T17:00:00,0,20910866,190259
OK,87,30,688,87,2014-08-02T17:05:00,2,20911315,190259
OK,87,30,688,87,2014-08-02T17:10:00,0,20911764,190259
OK,103,26,688,103,2014-08-02T17:15:00,1,20912213,190259
OK,103,26,688,103,2014-08-02T17:20:00,0,20912662,190259
OK,103,26,688,103,2014-08-02T17:25:00,0,20913111,190259
OK,103,26,688,103,2014-08-02T17:30:00,0,20913560,190259
OK,92,29,688,92,2014-08-02T17:35:00,1,20914009,190259
OK,63,42,688,63,2014-08-02T17:40:00,2,20914458,190259
OK,35,76,688,35,2014-08-02T17:45:00,1,20914907,190259
OK,35,76,688,35,2014-08-02T17:50:00,0,20915356,190259
OK,35,76,688,35,2014-08-02T17:55:00,0,20915805,190259
OK,35,76,688,35,2014-08-02T18:00:00,0,20916254,190259
OK,35,76,688,35,2014-08-02T18:05:00,0,20916703,190259
OK,35,76,688,35,2014-08-02T18:10:00,0,20917152,190259
OK,35,76,688,35,2014-08-02T18:15:00,0,20917601,190259
OK,35,76,688,35,2014-08-02T18:20:00,0,20918050,190259
OK,35,76,688,35,2014-08-02T18:25:00,0,20918499,190259
OK,73,36,688,73,2014-08-02T18:30:00,2,20918948,190259
OK,73,36,688,73,2014-08-02T18:35:00,2,20919397,190259
OK,36,74,688,36,2014-08-02T18:40:00,1,20919846,190259
OK,36,74,688,36,2014-08-02T18:45:00,0,20920295,190259
OK,36,74,688,36,2014-08-02T18:50:00,0,20920744,190259
OK,67,40,688,67,2014-08-02T18:55:00,2,20921193,190259
OK,67,40,688,67,2014-08-02T19:00:00,2,20921642,190259
OK,53,50,688,53,2014-08-02T19:05:00,1,20922091,190259
OK,53,50,688,53,2014-08-02T19:10:00,0,20922540,190259
OK,53,50,688,53,2014-08-02T19:15:00,0,20922989,190259
OK,53,50,688,53,2014-08-02T19:20:00,0,20923438,190259
OK,53,50,688,53,2014-08-02T19:25:00,0,20923887,190259
OK,53,50,688,53,2014-08-02T19:30:00,0,20924336,190259
OK,89,30,688,89,2014-08-02T19:35:00,1,20924785,190259
OK,89,30,688,89,2014-08-02T19:40:00,0,20925234,190259